Regional Weather Roundup
Issued by NWS Wakefield, VA

Home | Current Version | Previous Version | Text Only | Print | Product List | Glossary Off
Versions: 1 2 3 4 5 6 7 8 9 10 11 12 13 14 15 16 17 18 19 20 21 22 23 24 25 26 27 28 29 30 31 32 33 34 35 36 37 38 39 40 41 42 43 44 45 46 47 48 49 50

471
ASUS41 KAKQ 281715
RWRAKQ

REGIONAL WEATHER ROUNDUP
NATIONAL WEATHER SERVICE WAKEFIELD VA
100 PM EDT FRI APR 28 2017

Note: "fair" indicates few or no clouds below 12,000 feet with no
significant weather and/or obstructions to visibility. * = Denotes
station may not report precipitation (e.g., rain,snow,etc.),
thunder or fog.

VAZ042-051-052>054-056-281800-
NORTHERN VIRGINIA

CITY           SKY/WX    TMP DP  RH WIND       PRES   REMARKS
WASH NATIONAL  MOSUNNY   81  60  48 SE5       30.04S
DULLES         MOSUNNY   79  57  46 CALM      30.05S
FORT BELVOIR   SUNNY     81  60  48 SE8       30.04S
QUANTICO       MOSUNNY   76  61  59 S6        30.05F
FREDERICKSBRG* SUNNY     80  62  54 E7        30.03F
STAFFORD*      SUNNY     79  62  54 S3        30.08F
WARRENTON      MOSUNNY   83  55  37 CALM      30.04F HAZE
CULPEPER*      SUNNY     81  62  50 S7        30.04F
MANASSAS*        N/A     80  59  48 S5        30.04F
LEESBURG*      MOSUNNY   81  61  50 CALM      30.06S
WINCHESTER     SUNNY     75  55  50 SE8       30.05F
FRONT ROYAL*   SUNNY     79  55  44 SW5       30.03F
LURAY*         SUNNY     79  55  44 SW7       30.04F
$$

VAZ048-049-060>072-079>083-281800-
CENTRAL AND SOUTH CENTRAL VIRGINIA

CITY           SKY/WX    TMP DP  RH WIND       PRES   REMARKS
RICHMOND       MOSUNNY   80  67  64 S5        30.04F
CHESTERFIELD*  FAIR     N/A N/A N/A W6        30.06F
PETERSBURG*    PTSUNNY   81  64  57 S6        30.06S
HANOVER        SUNNY     81  63  54 VRB5      30.06F
TAPPAHANNOCK*  MOSUNNY   81  60  48 CALM      30.06F
QUINTON*       FAIR      80  68  65 CALM      30.05S
CHARLOTTSVILLE SUNNY     82  59  45 S6        30.05S
GORDONSVILLE*  PTSUNNY   81  59  47 S7        30.04S
ORANGE*        MOSUNNY   79  59  50 CALM      30.04F
LOUISA*        PTSUNNY   84  64  51 CALM      30.04S
BUMPASS*       FAIR      80  65  58 CALM      30.05S
FARMVILLE*     MOSUNNY   81  64  56 S5        30.04F
CREWE*         PTSUNNY   80  70  70 S6        30.06S
FORT PICKETT*  PTSUNNY   78  66  65 W6        30.07S
CHASE CITY*    FAIR      77  70  78 CALM      30.08S
CLARKSVILLE*   PTSUNNY   79  68  69 CALM      30.06F
SOUTH HILL*    PTSUNNY   80  70  71 SW5       30.12F
LAWRENCEVILLE* PTSUNNY   81  69  66 SW6       30.06F
EMPORIA*       MOSUNNY   79  68  69 S5        30.07F
$$

VAZ088>098-281800-
SOUTHEAST VIRGINIA

CITY           SKY/WX    TMP DP  RH WIND       PRES   REMARKS
NORFOLK        PTSUNNY   81  70  69 MISG      30.06F
VIRGINIA BEACH NOT AVBL
NORFOLK NAVAL  NOT AVBL
WEST POINT*    MOSUNNY   81  65  59 S5        30.06F
SALUDA*        FAIR      78  69  73 CALM      30.05F
NEWPORT NEWS   PTSUNNY   80  69  69 SW6       30.06F
LANGLEY AFB    CLOUDY    80  71  72 W5        30.06S
FORT EUSTIS    MOSUNNY   82  70  65 CALM      30.04F
WILLIAMSBURG*  SUNNY     82  70  65 S5        30.07S
HR EXEC AP*    FAIR      82  72  69 SW8       30.04F
FRANKLIN*      PTSUNNY   81  70  68 SW10      30.07F
US460-WAKEFLD  PTSUNNY   82  68  62 VRB3      30.06F
$$

VAZ020-022-025-037-045-281800-
WEST CENTRAL AND SOUTHWEST VIRGINIA

CITY           SKY/WX    TMP DP  RH WIND       PRES   REMARKS
STAUNTON*      SUNNY     76  59  54 SE6       30.08F
WAYNESBORO*    SUNNY     77  62  59 CALM      30.07F
HOT SPRINGS VA PTSUNNY   66  50  55 SW5       30.17S
LYNCHBURG      MOSUNNY   79  58  48 VRB6      30.08S
DANVILLE       MOSUNNY   77  68  73 SW9       30.07S
SOUTH BOSTON*  PTSUNNY   78  68  72 CALM      30.07S
MARTINSVILLE   PTSUNNY   76  63  62 W5        30.10F
ROANOKE        MOSUNNY   77  62  59 VRB3      30.10S
BLACKSBURG     MOSUNNY   73  62  68 CALM      30.14S
DUBLIN*        SUNNY     70  65  86 CALM      30.12F
MARION*        SUNNY     75  60  58 NE3       30.12F
HILLSVILLE*    SUNNY     74  58  57 CALM      30.11F
RICHLANDS*     FAIR      76  50  41 S6        30.09F
WISE*          SUNNY     73  46  38 S10       30.09S
ABINGDON*      SUNNY     78  55  44 CALM      30.07F
$$

MDZ021>025-VAZ099-100-281800-
SOUTHERN MARYLAND AND THE DELMARVA PENINSULA

CITY           SKY/WX    TMP DP  RH WIND       PRES   REMARKS
PATUXENT RIVER MOSUNNY   77  64  64 E7        30.05F
BAY BRIDGE APT SUNNY     81  59  47 SE9       30.04S
LEONARDTOWN    MOSUNNY   79  55  44 E7        30.06F
DOVER          SUNNY     81  78  92 CALM      30.02F
GEORGETOWN     PTSUNNY   83  62  49 VRB5      30.04F
EASTON         SUNNY     82  57  42 NE5       30.08F
CAMBRIDGE      SUNNY     79  59  50 CALM      30.05F
SALISBURY      SUNNY     82  62  50 NE3       30.04F
OCEAN CITY     SUNNY     74  65  73 S8        30.05F
WALLOPS ISLAND MOSUNNY   80  68  66 SW7       30.06F
ACCOMACK*      MOSUNNY   80  68  66 SW9       30.06F
$$

NCZ012>017-030>032-281800-
NORTH CENTRAL AND EASTERN NORTH CAROLINA

CITY           SKY/WX    TMP DP  RH WIND       PRES   REMARKS
ROANOKE RAPIDS CLOUDY    81  70  69 S8        30.07S
RALEIGH        PTSUNNY   82  69  64 SW12      30.08S
ELIZABETH CITY MOSUNNY   84  74  71 SW9       30.07S
AHOSKIE*         N/A     81  70  68 CALM      30.07S
EDENTON*       MOSUNNY   85  71  63 W9        30.09S
CURRITUCK*     CLOUDY    84  70  63 SW9G17    30.08S
KILL DEVIL HLS MOSUNNY   82  70  68 CALM      30.08S
MANTEO         CLOUDY    79  71  75 W9        30.10R
CAPE HATTERAS  PTSUNNY   79  72  79 SW10      30.13S HAZE
TARBORO*       NOT AVBL
GOLDSBORO      MOSUNNY   85  75  71 SW10      30.07S
WASHINGTON     SUNNY     85  71  64 SW9       30.08F
GREENVILLE     PTSUNNY   82  72  69 SW9       30.09F
NEW BERN       PTSUNNY   84  73  69 S9        30.10F
WILMINGTON     CLOUDY    83  73  72 SW13G22   30.10F
$$

VAZ048-281800-
ELSEWHERE

CITY           SKY/WX    TMP DP  RH WIND       PRES   REMARKS
HARRISBURG PA  PTSUNNY   77  50  38 NW8       30.02F
BALTIMORE      MOSUNNY   81  56  42 W6        30.03F
ANNAPOLIS      SUNNY     72  63  73 SE9       30.04F
ANDREWS AFB    SUNNY     80  57  45 W6        30.04S
PHILADELPHIA   MOSUNNY   82  50  32 SW15      30.01F
HENDERSON NC   MOSUNNY   78  65  64 SW3       30.07F
GREENSBORO     MOSUNNY   79  67  66 VRB7      30.08S
ROCKY MOUNT      N/A    N/A N/A N/A MISG      30.07F
$$

VAZ100-281800-
MARINE

STATION/POSITION TIME  TEMP    WIND        PRES    WAVE   SWELL
                       AIR SEA DIR/SP/G            HT/PER HT/PER
                 (UTC) (F)     (DEG/KT/KT) (MB)    (FT/S) (FT/S)
CAPE MAY NJ      1648   68 58  230/  7/  7 1017.4F
LEWES DE         1648   73 57   50/  4/  4 1017.6F
15NM E FENWICK I 1650   57 54  200/  8/ 10 1018.5R   4/ 9   3/ 9
OCEAN-CITY-INLET 1648   62 54  190/  6/  9 1018.2F
WACHAPREAGUE VA  1648   75 68  170/  4/  6 1017.5F
THOMAS POINT MD  1700   68 59  160/  9/  9   N/A
GOOSES REEF MD   1700   68 60  120/  4/  4 1018.5    0
COVE POINT MD    1648   73        CALM     1018.3F
SOLOMONS ISLAND  1648   71 62   90/  8/  9   N/A
BISHOPS HEAD MD  1648   69 72  230/  7/  7 1018.3F
PINEY POINT MD   1648          180/  6/  6   N/A
POTOMAC MD       1700   67 65  150/  4/  6 1016.9    0
CAMBRIDGE MD     1642   76 66                N/A
LEWISETTA VA     1648   69 66  100/  5/  6 1017.4F
RAPPAHANNOCK LGT 1648          190/  8/  8 1018.6F
STINGRAY PT      1700   68 65  160/  8/  8 1018.2    1
YORK RVR RNG VA  1648   75     210/  2/  2 1017.4F
YORKTOWN VA      1648   78 64  190/  4/  5 1017.6F
JAMESTOWN VA     1700   78 71   CALM  /  2   N/A     0
DOMINION TERM VA 1648   75     170/  3/  3 1018.1F
KIPTOPEKE VA     1648      63  170/  2/  5   N/A
CHES BAY BRIDGE  1648   74 63  310/  3/  4 1018.0F
CAPE HENRY VA    1648   76     300/  4/  5   N/A
WILLOUBY STN VA  1648   75     250/  3/  4 1019.1F
S CRANEY ISL VA  1648   79     250/  5/  6 1017.9F
CAPE HENRY BUOY  1642      65                N/A     3/ 8
1ST LANDING BUOY 1700   76 66              1018.1    1/ 5
CAPE CHARLES BUO 1651      62                N/A     3/ 9
64NM E OF VA BCH 1650   60 56  210/ 10/ 12 1019.5F   5/ 7   5/ 7
DUCK PIER NC     1648   79 56  220/  9/ 11 1018.1F
44100 DUCK FRF   1635      63                N/A     3/ 7   2/12
44056 DUCK FRF   1700      61                N/A     3/ 8   2/11
OREGON INLET NC  1642   74 73  190/ 15/ 18 1019.3S
HATTERAS NC      1648   77 70  200/  9/ 13 1020.0R
DIAMOND SHLS NC  1650   78 76  210/ 17/ 19 1020.1R   6/ 8   3/ 8
CAPE LOOKOUT NC  1700   78     210/ 12/ 16 1019.9R
$$




USA.gov is the U.S. government's official web portal to all federal, state and local government web resources and services.